Location: Newark
(24.0228°N, 104.6544°W)
Time: 20:38:16
(UTC+00:00)

X-37B - Visible Passes

Search period start: 18 September 2020 00:00
Search period end: 28 September 2020 00:00
Orbit: 386 x 387 km, 45.0° (Epoch: 18 September)

Date Brightness Start Highest point End Pass type
(mag) Time Alt. Az. Time Alt. Az. Time Alt. Az.
24 Sep 3.3 11:42:26 10° N 11:44:37 17° NNE 11:46:49 10° ENE visible
25 Sep 0.5 12:19:36 10° NW 12:22:46 87° SW 12:25:55 10° SE visible
26 Sep 2.0 11:23:18 29° N 11:24:11 35° NE 11:27:07 10° ESE visible
27 Sep 1.5 12:00:39 20° W 12:02:08 31° SW 12:04:59 10° SSE visible
